Year,Month,Day,Hour,Minute,Value (Times are PST for windgust in km/hr)
2010,03,31,00,00,1.60
2010,03,31,00,01,0.00
2010,03,31,00,02,1.60
2010,03,31,00,03,0.00
2010,03,31,00,04,1.60
2010,03,31,00,05,1.60
2010,03,31,00,06,3.20
2010,03,31,00,07,1.60
2010,03,31,00,08,4.80
2010,03,31,00,09,4.80
2010,03,31,00,10,4.80
2010,03,31,00,11,3.20
2010,03,31,00,12,3.20
2010,03,31,00,13,3.20
2010,03,31,00,14,3.20
2010,03,31,00,15,3.20
2010,03,31,00,16,3.20
2010,03,31,00,17,3.20
2010,03,31,00,18,3.20
2010,03,31,00,19,4.80
2010,03,31,00,20,4.80
2010,03,31,00,21,4.80
2010,03,31,00,22,4.80
2010,03,31,00,23,6.40
2010,03,31,00,24,4.80
2010,03,31,00,25,6.40
2010,03,31,00,26,4.80
2010,03,31,00,27,6.40
2010,03,31,00,28,6.40
2010,03,31,00,29,4.80
2010,03,31,00,30,6.40
2010,03,31,00,31,4.80
2010,03,31,00,32,4.80
2010,03,31,00,33,6.40
2010,03,31,00,34,6.40
2010,03,31,00,35,6.40
2010,03,31,00,36,6.40
2010,03,31,00,37,4.80
2010,03,31,00,38,6.40
2010,03,31,00,39,6.40
2010,03,31,00,40,6.40
2010,03,31,00,41,8.10
2010,03,31,00,42,6.40
2010,03,31,00,43,8.10
2010,03,31,00,44,6.40
2010,03,31,00,45,6.40
2010,03,31,00,46,8.10
2010,03,31,00,47,6.40
2010,03,31,00,48,6.40
2010,03,31,00,49,6.40
2010,03,31,00,50,4.80
2010,03,31,00,51,4.80
2010,03,31,00,52,4.80
2010,03,31,00,53,4.80
2010,03,31,00,54,3.20
2010,03,31,00,55,3.20
2010,03,31,00,56,4.80
2010,03,31,00,57,4.80
2010,03,31,00,58,3.20
2010,03,31,00,59,3.20
2010,03,31,01,00,3.20
2010,03,31,01,01,3.20
2010,03,31,01,02,3.20
2010,03,31,01,03,1.60
2010,03,31,01,04,1.60
2010,03,31,01,05,3.20
2010,03,31,01,06,1.60
2010,03,31,01,07,3.20
2010,03,31,01,08,3.20
2010,03,31,01,09,3.20
2010,03,31,01,10,3.20
2010,03,31,01,11,3.20
2010,03,31,01,12,3.20
2010,03,31,01,13,4.80
2010,03,31,01,14,3.20
2010,03,31,01,15,3.20
2010,03,31,01,16,3.20
2010,03,31,01,17,3.20
2010,03,31,01,18,1.60
2010,03,31,01,19,1.60
2010,03,31,01,20,3.20
2010,03,31,01,21,3.20
2010,03,31,01,22,3.20
2010,03,31,01,23,3.20
2010,03,31,01,24,3.20
2010,03,31,01,25,3.20
2010,03,31,01,26,3.20
2010,03,31,01,27,4.80
2010,03,31,01,28,3.20
2010,03,31,01,29,4.80
2010,03,31,01,30,3.20
2010,03,31,01,31,4.80
2010,03,31,01,32,4.80
2010,03,31,01,33,4.80
2010,03,31,01,34,6.40
2010,03,31,01,35,6.40
2010,03,31,01,36,8.10
2010,03,31,01,37,4.80
2010,03,31,01,38,4.80
2010,03,31,01,39,4.80
2010,03,31,01,40,4.80
2010,03,31,01,41,4.80
2010,03,31,01,42,4.80
2010,03,31,01,43,3.20
2010,03,31,01,44,4.80
2010,03,31,01,45,6.40
2010,03,31,01,46,6.40
2010,03,31,01,47,8.10
2010,03,31,01,48,8.10
2010,03,31,01,49,9.60
2010,03,31,01,50,9.60
2010,03,31,01,51,11.30
2010,03,31,01,52,14.50
2010,03,31,01,53,11.30
2010,03,31,01,54,11.30
2010,03,31,01,55,11.30
2010,03,31,01,56,11.30
2010,03,31,01,57,9.60
2010,03,31,01,58,11.30
2010,03,31,01,59,11.30
2010,03,31,02,00,9.60
2010,03,31,02,01,9.60
2010,03,31,02,02,9.60
2010,03,31,02,03,9.60
2010,03,31,02,04,9.60
2010,03,31,02,05,8.10
2010,03,31,02,06,9.60
2010,03,31,02,07,9.60
2010,03,31,02,08,6.40
2010,03,31,02,09,8.10
2010,03,31,02,10,6.40
2010,03,31,02,11,4.80
2010,03,31,02,12,4.80
2010,03,31,02,13,3.20
2010,03,31,02,14,0.00
2010,03,31,02,15,1.60
2010,03,31,02,16,0.00
2010,03,31,02,17,0.00
2010,03,31,02,18,0.00
2010,03,31,02,19,0.00
2010,03,31,02,20,0.00
2010,03,31,02,21,1.60
2010,03,31,02,22,0.00
2010,03,31,02,23,0.00
2010,03,31,02,24,0.00
2010,03,31,02,25,0.00
2010,03,31,02,26,0.00
2010,03,31,02,27,0.00
2010,03,31,02,28,0.00
2010,03,31,02,29,0.00
2010,03,31,02,30,0.00
2010,03,31,02,31,0.00
2010,03,31,02,32,0.00
2010,03,31,02,33,0.00
2010,03,31,02,34,0.00
2010,03,31,02,35,0.00
2010,03,31,02,36,0.00
2010,03,31,02,37,0.00
2010,03,31,02,38,0.00
2010,03,31,02,39,0.00
2010,03,31,02,40,0.00
2010,03,31,02,41,0.00
2010,03,31,02,42,0.00
2010,03,31,02,43,0.00
2010,03,31,02,44,0.00
2010,03,31,02,45,0.00
2010,03,31,02,46,0.00
2010,03,31,02,47,0.00
2010,03,31,02,48,0.00
2010,03,31,02,49,0.00
2010,03,31,02,50,0.00
2010,03,31,02,51,0.00
2010,03,31,02,52,0.00
2010,03,31,02,53,0.00
2010,03,31,02,54,0.00
2010,03,31,02,55,0.00
2010,03,31,02,56,0.00
2010,03,31,02,57,0.00
2010,03,31,02,58,0.00
2010,03,31,02,59,0.00
2010,03,31,03,00,0.00
2010,03,31,03,01,0.00
2010,03,31,03,02,0.00
2010,03,31,03,03,0.00
2010,03,31,03,04,0.00
2010,03,31,03,05,0.00
2010,03,31,03,06,0.00
2010,03,31,03,07,0.00
2010,03,31,03,08,0.00
2010,03,31,03,09,0.00
2010,03,31,03,10,0.00
2010,03,31,03,11,0.00
2010,03,31,03,12,1.60
2010,03,31,03,13,3.20
2010,03,31,03,14,3.20
2010,03,31,03,15,0.00
2010,03,31,03,16,0.00
2010,03,31,03,17,1.60
2010,03,31,03,18,1.60
2010,03,31,03,19,1.60
2010,03,31,03,20,0.00
2010,03,31,03,21,0.00
2010,03,31,03,22,0.00
2010,03,31,03,23,0.00
2010,03,31,03,24,0.00
2010,03,31,03,25,0.00
2010,03,31,03,26,0.00
2010,03,31,03,27,3.20
2010,03,31,03,28,1.60
2010,03,31,03,29,0.00
2010,03,31,03,30,1.60
2010,03,31,03,31,0.00
2010,03,31,03,32,0.00
2010,03,31,03,33,0.00
2010,03,31,03,34,1.60
2010,03,31,03,35,0.00
2010,03,31,03,36,0.00
2010,03,31,03,37,0.00
2010,03,31,03,38,0.00
2010,03,31,03,39,1.60
2010,03,31,03,40,0.00
2010,03,31,03,41,0.00
2010,03,31,03,42,0.00
2010,03,31,03,43,0.00
2010,03,31,03,44,1.60
2010,03,31,03,45,0.00
2010,03,31,03,46,0.00
2010,03,31,03,47,0.00
2010,03,31,03,48,0.00
2010,03,31,03,49,0.00
2010,03,31,03,50,0.00
2010,03,31,03,51,1.60
2010,03,31,03,52,1.60
2010,03,31,03,53,1.60
2010,03,31,03,54,0.00
2010,03,31,03,55,0.00
2010,03,31,03,56,3.20
2010,03,31,03,57,3.20
2010,03,31,03,58,0.00
2010,03,31,03,59,1.60
2010,03,31,04,00,0.00
2010,03,31,04,01,1.60
2010,03,31,04,02,1.60
2010,03,31,04,03,1.60
2010,03,31,04,04,1.60
2010,03,31,04,05,1.60
2010,03,31,04,06,0.00
2010,03,31,04,07,0.00
2010,03,31,04,08,1.60
2010,03,31,04,09,4.80
2010,03,31,04,10,4.80
2010,03,31,04,11,3.20
2010,03,31,04,12,4.80
2010,03,31,04,13,3.20
2010,03,31,04,14,0.00
2010,03,31,04,15,3.20
2010,03,31,04,16,1.60
2010,03,31,04,17,0.00
2010,03,31,04,18,3.20
2010,03,31,04,19,3.20
2010,03,31,04,20,1.60
2010,03,31,04,21,0.00
2010,03,31,04,22,1.60
2010,03,31,04,23,3.20
2010,03,31,04,24,1.60
2010,03,31,04,25,3.20
2010,03,31,04,26,3.20
2010,03,31,04,27,0.00
2010,03,31,04,28,3.20
2010,03,31,04,29,1.60
2010,03,31,04,30,4.80
2010,03,31,04,31,3.20
2010,03,31,04,32,1.60
2010,03,31,04,33,1.60
2010,03,31,04,34,1.60
2010,03,31,04,35,0.00
2010,03,31,04,36,1.60
2010,03,31,04,37,1.60
2010,03,31,04,38,1.60
2010,03,31,04,39,1.60
2010,03,31,04,40,1.60
2010,03,31,04,41,3.20
2010,03,31,04,42,1.60
2010,03,31,04,43,0.00
2010,03,31,04,44,3.20
2010,03,31,04,45,3.20
2010,03,31,04,46,1.60
2010,03,31,04,47,3.20
2010,03,31,04,48,4.80
2010,03,31,04,49,4.80
2010,03,31,04,50,4.80
2010,03,31,04,51,1.60
2010,03,31,04,52,3.20
2010,03,31,04,53,3.20
2010,03,31,04,54,4.80
2010,03,31,04,55,4.80
2010,03,31,04,56,4.80
2010,03,31,04,57,6.40
2010,03,31,04,58,3.20
2010,03,31,04,59,6.40
2010,03,31,05,00,4.80
2010,03,31,05,01,4.80
2010,03,31,05,02,6.40
2010,03,31,05,03,4.80
2010,03,31,05,04,6.40
2010,03,31,05,05,4.80
2010,03,31,05,06,4.80
2010,03,31,05,07,6.40
2010,03,31,05,08,4.80
2010,03,31,05,09,6.40
2010,03,31,05,10,6.40
2010,03,31,05,11,6.40
2010,03,31,05,12,4.80
2010,03,31,05,13,4.80
2010,03,31,05,14,6.40
2010,03,31,05,15,4.80
2010,03,31,05,16,4.80
2010,03,31,05,17,3.20
2010,03,31,05,18,3.20
2010,03,31,05,19,4.80
2010,03,31,05,20,9.60
2010,03,31,05,21,9.60
2010,03,31,05,22,4.80
2010,03,31,05,23,4.80
2010,03,31,05,24,4.80
2010,03,31,05,25,8.10
2010,03,31,05,26,6.40
2010,03,31,05,27,3.20
2010,03,31,05,28,4.80
2010,03,31,05,29,3.20
2010,03,31,05,30,1.60
2010,03,31,05,31,3.20
2010,03,31,05,32,3.20
2010,03,31,05,33,4.80
2010,03,31,05,34,3.20
2010,03,31,05,35,1.60
2010,03,31,05,36,3.20
2010,03,31,05,37,1.60
2010,03,31,05,38,3.20
2010,03,31,05,39,4.80
2010,03,31,05,40,4.80
2010,03,31,05,41,6.40
2010,03,31,05,42,4.80
2010,03,31,05,43,4.80
2010,03,31,05,44,4.80
2010,03,31,05,45,6.40
2010,03,31,05,46,3.20
2010,03,31,05,47,3.20
2010,03,31,05,48,4.80
2010,03,31,05,49,3.20
2010,03,31,05,50,3.20
2010,03,31,05,51,3.20
2010,03,31,05,52,1.60
2010,03,31,05,53,0.00
2010,03,31,05,54,3.20
2010,03,31,05,55,1.60
2010,03,31,05,56,1.60
2010,03,31,05,57,1.60
2010,03,31,05,58,3.20
2010,03,31,05,59,4.80
2010,03,31,06,00,3.20
2010,03,31,06,01,1.60
2010,03,31,06,02,1.60
2010,03,31,06,03,3.20
2010,03,31,06,04,4.80
2010,03,31,06,05,1.60
2010,03,31,06,06,3.20
2010,03,31,06,07,1.60
2010,03,31,06,08,1.60
2010,03,31,06,09,3.20
2010,03,31,06,10,3.20
2010,03,31,06,11,6.40
2010,03,31,06,12,3.20
2010,03,31,06,13,3.20
2010,03,31,06,14,3.20
2010,03,31,06,15,1.60
2010,03,31,06,16,3.20
2010,03,31,06,17,0.00
2010,03,31,06,18,1.60
2010,03,31,06,19,0.00
2010,03,31,06,20,0.00
2010,03,31,06,21,0.00
2010,03,31,06,22,0.00
2010,03,31,06,23,1.60
2010,03,31,06,24,0.00
2010,03,31,06,25,0.00
2010,03,31,06,26,0.00
2010,03,31,06,27,0.00
2010,03,31,06,28,0.00
2010,03,31,06,29,0.00
2010,03,31,06,30,0.00
2010,03,31,06,31,0.00
2010,03,31,06,32,0.00
2010,03,31,06,33,0.00
2010,03,31,06,34,0.00
2010,03,31,06,35,0.00
2010,03,31,06,36,0.00
2010,03,31,06,37,0.00
2010,03,31,06,38,0.00
2010,03,31,06,39,1.60
2010,03,31,06,40,3.20
2010,03,31,06,41,3.20
2010,03,31,06,42,3.20
2010,03,31,06,43,3.20
2010,03,31,06,44,3.20
2010,03,31,06,45,3.20
2010,03,31,06,46,3.20
2010,03,31,06,47,1.60
2010,03,31,06,48,1.60
2010,03,31,06,49,3.20
2010,03,31,06,50,4.80
2010,03,31,06,51,6.40
2010,03,31,06,52,6.40
2010,03,31,06,53,6.40
2010,03,31,06,54,4.80
2010,03,31,06,55,4.80
2010,03,31,06,56,4.80
2010,03,31,06,57,4.80
2010,03,31,06,58,4.80
2010,03,31,06,59,3.20
2010,03,31,07,00,4.80
2010,03,31,07,01,3.20
2010,03,31,07,02,3.20
2010,03,31,07,03,1.60
2010,03,31,07,04,3.20
2010,03,31,07,05,3.20
2010,03,31,07,06,1.60
2010,03,31,07,07,4.80
2010,03,31,07,08,3.20
2010,03,31,07,09,3.20
2010,03,31,07,10,3.20
2010,03,31,07,11,3.20
2010,03,31,07,12,1.60
2010,03,31,07,13,3.20
2010,03,31,07,14,1.60
2010,03,31,07,15,1.60
2010,03,31,07,16,0.00
2010,03,31,07,17,1.60
2010,03,31,07,18,0.00
2010,03,31,07,19,0.00
2010,03,31,07,20,0.00
2010,03,31,07,21,1.60
2010,03,31,07,22,0.00
2010,03,31,07,23,1.60
2010,03,31,07,24,1.60
2010,03,31,07,25,1.60
2010,03,31,07,26,1.60
2010,03,31,07,27,0.00
2010,03,31,07,28,0.00
2010,03,31,07,29,0.00
2010,03,31,07,30,0.00
2010,03,31,07,31,0.00
2010,03,31,07,32,0.00
2010,03,31,07,33,0.00
2010,03,31,07,34,0.00
2010,03,31,07,35,0.00
2010,03,31,07,36,0.00
2010,03,31,07,37,0.00
2010,03,31,07,38,1.60
2010,03,31,07,39,0.00
2010,03,31,07,40,0.00
2010,03,31,07,41,0.00
2010,03,31,07,42,0.00
2010,03,31,07,43,0.00
2010,03,31,07,44,0.00
2010,03,31,07,45,0.00
2010,03,31,07,46,0.00
2010,03,31,07,47,0.00
2010,03,31,07,48,0.00
2010,03,31,07,49,0.00
2010,03,31,07,50,1.60
2010,03,31,07,51,3.20
2010,03,31,07,52,4.80
2010,03,31,07,53,1.60
2010,03,31,07,54,3.20
2010,03,31,07,55,1.60
2010,03,31,07,56,4.80
2010,03,31,07,57,4.80
2010,03,31,07,58,1.60
2010,03,31,07,59,1.60
2010,03,31,08,00,4.80
2010,03,31,08,01,4.80
2010,03,31,08,02,4.80
2010,03,31,08,03,6.40
2010,03,31,08,04,8.10
2010,03,31,08,05,8.10
2010,03,31,08,06,6.40
2010,03,31,08,07,4.80
2010,03,31,08,08,3.20
2010,03,31,08,09,1.60
2010,03,31,08,10,3.20
2010,03,31,08,11,4.80
2010,03,31,08,12,3.20
2010,03,31,08,13,3.20
2010,03,31,08,14,3.20
2010,03,31,08,15,4.80
2010,03,31,08,16,6.40
2010,03,31,08,17,6.40
2010,03,31,08,18,4.80
2010,03,31,08,19,4.80
2010,03,31,08,20,4.80
2010,03,31,08,21,3.20
2010,03,31,08,22,6.40
2010,03,31,08,23,6.40
2010,03,31,08,24,6.40
2010,03,31,08,25,3.20
2010,03,31,08,26,3.20
2010,03,31,08,27,6.40
2010,03,31,08,28,4.80
2010,03,31,08,29,3.20
2010,03,31,08,30,3.20
2010,03,31,08,31,4.80
2010,03,31,08,32,6.40
2010,03,31,08,33,4.80
2010,03,31,08,34,3.20
2010,03,31,08,35,6.40
2010,03,31,08,36,8.10
2010,03,31,08,37,8.10
2010,03,31,08,38,9.60
2010,03,31,08,39,6.40
2010,03,31,08,40,4.80
2010,03,31,08,41,6.40
2010,03,31,08,42,6.40
2010,03,31,08,43,8.10
2010,03,31,08,44,8.10
2010,03,31,08,45,8.10
2010,03,31,08,46,6.40
2010,03,31,08,47,8.10
2010,03,31,08,48,4.80
2010,03,31,08,49,6.40
2010,03,31,08,50,4.80
2010,03,31,08,51,6.40
2010,03,31,08,52,3.20
2010,03,31,08,53,4.80
2010,03,31,08,54,3.20
2010,03,31,08,55,6.40
2010,03,31,08,56,4.80
2010,03,31,08,57,4.80
2010,03,31,08,58,3.20
2010,03,31,08,59,4.80
2010,03,31,09,00,4.80
2010,03,31,09,01,8.10
2010,03,31,09,02,3.20
2010,03,31,09,03,3.20
2010,03,31,09,04,3.20
2010,03,31,09,05,4.80
2010,03,31,09,06,4.80
2010,03,31,09,07,4.80
2010,03,31,09,08,6.40
2010,03,31,09,09,3.20
2010,03,31,09,10,3.20
2010,03,31,09,11,8.10
2010,03,31,09,12,4.80
2010,03,31,09,13,9.60
2010,03,31,09,14,6.40
2010,03,31,09,15,4.80
2010,03,31,09,16,6.40
2010,03,31,09,17,1.60
2010,03,31,09,18,3.20
2010,03,31,09,19,4.80
2010,03,31,09,20,6.40
2010,03,31,09,21,6.40
2010,03,31,09,22,4.80
2010,03,31,09,23,4.80
2010,03,31,09,24,6.40
2010,03,31,09,25,6.40
2010,03,31,09,26,8.10
2010,03,31,09,27,4.80
2010,03,31,09,28,4.80
2010,03,31,09,29,9.60
2010,03,31,09,30,12.90
2010,03,31,09,31,14.50
2010,03,31,09,32,11.30
2010,03,31,09,33,9.60
2010,03,31,09,34,19.30
2010,03,31,09,35,17.70
2010,03,31,09,36,19.30
2010,03,31,09,37,9.60
2010,03,31,09,38,8.10
2010,03,31,09,39,8.10
2010,03,31,09,40,9.60
2010,03,31,09,41,9.60
2010,03,31,09,42,11.30
2010,03,31,09,43,11.30
2010,03,31,09,44,8.10
2010,03,31,09,45,6.40
2010,03,31,09,46,4.80
2010,03,31,09,47,3.20
2010,03,31,09,48,1.60
2010,03,31,09,49,0.00
2010,03,31,09,50,1.60
2010,03,31,09,51,4.80
2010,03,31,09,52,8.10
2010,03,31,09,53,4.80
2010,03,31,09,54,4.80
2010,03,31,09,55,9.60
2010,03,31,09,56,1.60
2010,03,31,09,57,6.40
2010,03,31,09,58,4.80
2010,03,31,09,59,6.40
2010,03,31,10,00,4.80
2010,03,31,10,01,6.40
2010,03,31,10,02,9.60
2010,03,31,10,03,3.20
2010,03,31,10,04,3.20
2010,03,31,10,05,8.10
2010,03,31,10,06,9.60
2010,03,31,10,07,8.10
2010,03,31,10,08,8.10
2010,03,31,10,09,4.80
2010,03,31,10,10,8.10
2010,03,31,10,11,4.80
2010,03,31,10,12,6.40
2010,03,31,10,13,3.20
2010,03,31,10,14,9.60
2010,03,31,10,15,4.80
2010,03,31,10,16,3.20
2010,03,31,10,17,1.60
2010,03,31,10,18,3.20
2010,03,31,10,19,11.30
2010,03,31,10,20,9.60
2010,03,31,10,21,8.10
2010,03,31,10,22,8.10
2010,03,31,10,23,9.60
2010,03,31,10,24,8.10
2010,03,31,10,25,6.40
2010,03,31,10,26,4.80
2010,03,31,10,27,4.80
2010,03,31,10,28,6.40
2010,03,31,10,29,11.30
2010,03,31,10,30,11.30
2010,03,31,10,31,4.80
2010,03,31,10,32,6.40
2010,03,31,10,33,6.40
2010,03,31,10,34,16.10
2010,03,31,10,35,16.10
2010,03,31,10,36,12.90
2010,03,31,10,37,14.50
2010,03,31,10,38,14.50
2010,03,31,10,39,4.80
2010,03,31,10,40,8.10
2010,03,31,10,41,11.30
2010,03,31,10,42,6.40
2010,03,31,10,43,17.70
2010,03,31,10,44,16.10
2010,03,31,10,45,17.70
2010,03,31,10,46,16.10
2010,03,31,10,47,17.70
2010,03,31,10,48,14.50
2010,03,31,10,49,9.60
2010,03,31,10,50,9.60
2010,03,31,10,51,16.10
2010,03,31,10,52,16.10
2010,03,31,10,53,9.60
2010,03,31,10,54,8.10
2010,03,31,10,55,8.10
2010,03,31,10,56,11.30
2010,03,31,10,57,9.60
2010,03,31,10,58,4.80
2010,03,31,10,59,8.10
2010,03,31,11,00,4.80
2010,03,31,11,01,11.30
2010,03,31,11,02,8.10
2010,03,31,11,03,8.10
2010,03,31,11,04,8.10
2010,03,31,11,05,6.40
2010,03,31,11,06,6.40
2010,03,31,11,07,11.30
2010,03,31,11,08,4.80
2010,03,31,11,09,11.30
2010,03,31,11,10,17.70
2010,03,31,11,11,9.60
2010,03,31,11,12,12.90
2010,03,31,11,13,14.50
2010,03,31,11,14,8.10
2010,03,31,11,15,12.90
2010,03,31,11,16,11.30
2010,03,31,11,17,6.40
2010,03,31,11,18,16.10
2010,03,31,11,19,6.40
2010,03,31,11,20,22.50
2010,03,31,11,21,17.70
2010,03,31,11,22,12.90
2010,03,31,11,23,11.30
2010,03,31,11,24,11.30
2010,03,31,11,25,14.50
2010,03,31,11,26,16.10
2010,03,31,11,27,11.30
2010,03,31,11,28,11.30
2010,03,31,11,29,14.50
2010,03,31,11,30,11.30
2010,03,31,11,31,16.10
2010,03,31,11,32,11.30
2010,03,31,11,33,11.30
2010,03,31,11,34,8.10
2010,03,31,11,35,4.80
2010,03,31,11,36,12.90
2010,03,31,11,37,9.60
2010,03,31,11,38,11.30
2010,03,31,11,39,11.30
2010,03,31,11,40,9.60
2010,03,31,11,41,14.50
2010,03,31,11,42,11.30
2010,03,31,11,43,11.30
2010,03,31,11,44,8.10
2010,03,31,11,45,11.30
2010,03,31,11,46,11.30
2010,03,31,11,47,9.60
2010,03,31,11,48,12.90
2010,03,31,11,49,6.40
2010,03,31,11,50,11.30
2010,03,31,11,51,16.10
2010,03,31,11,52,8.10
2010,03,31,11,53,8.10
2010,03,31,11,54,9.60
2010,03,31,11,55,11.30
2010,03,31,11,56,9.60
2010,03,31,11,57,6.40
2010,03,31,11,58,11.30
2010,03,31,11,59,11.30
2010,03,31,12,00,14.50
2010,03,31,12,01,12.90
2010,03,31,12,02,17.70
2010,03,31,12,03,14.50
2010,03,31,12,04,16.10
2010,03,31,12,05,16.10
2010,03,31,12,06,16.10
2010,03,31,12,07,14.50
2010,03,31,12,08,17.70
2010,03,31,12,09,11.30
2010,03,31,12,10,11.30
2010,03,31,12,11,12.90
2010,03,31,12,12,6.40
2010,03,31,12,13,11.30
2010,03,31,12,14,8.10
2010,03,31,12,15,8.10
2010,03,31,12,16,8.10
2010,03,31,12,17,6.40
2010,03,31,12,18,4.80
2010,03,31,12,19,6.40
2010,03,31,12,20,9.60
2010,03,31,12,21,11.30
2010,03,31,12,22,6.40
2010,03,31,12,23,6.40
2010,03,31,12,24,4.80
2010,03,31,12,25,9.60
2010,03,31,12,26,8.10
2010,03,31,12,27,16.10
2010,03,31,12,28,9.60
2010,03,31,12,29,16.10
2010,03,31,12,30,17.70
2010,03,31,12,31,11.30
2010,03,31,12,32,6.40
2010,03,31,12,33,6.40
2010,03,31,12,34,6.40
2010,03,31,12,35,6.40
2010,03,31,12,36,4.80
2010,03,31,12,37,14.50
2010,03,31,12,38,16.10
2010,03,31,12,39,14.50
2010,03,31,12,40,9.60
2010,03,31,12,41,6.40
2010,03,31,12,42,9.60
2010,03,31,12,43,12.90
2010,03,31,12,44,14.50
2010,03,31,12,45,12.90
2010,03,31,12,46,9.60
2010,03,31,12,47,11.30
2010,03,31,12,48,11.30
2010,03,31,12,49,16.10
2010,03,31,12,50,12.90
2010,03,31,12,51,8.10
2010,03,31,12,52,3.20
2010,03,31,12,53,11.30
2010,03,31,12,54,11.30
2010,03,31,12,55,11.30
2010,03,31,12,56,14.50
2010,03,31,12,57,9.60
2010,03,31,12,58,8.10
2010,03,31,12,59,16.10
2010,03,31,13,00,9.60
2010,03,31,13,01,3.20
2010,03,31,13,02,9.60
2010,03,31,13,03,4.80
2010,03,31,13,04,6.40
2010,03,31,13,05,14.50
2010,03,31,13,06,6.40
2010,03,31,13,07,14.50
2010,03,31,13,08,11.30
2010,03,31,13,09,9.60
2010,03,31,13,10,8.10
2010,03,31,13,11,4.80
2010,03,31,13,12,3.20
2010,03,31,13,13,3.20
2010,03,31,13,14,9.60
2010,03,31,13,15,9.60
2010,03,31,13,16,9.60
2010,03,31,13,17,6.40
2010,03,31,13,18,11.30
2010,03,31,13,19,14.50
2010,03,31,13,20,17.70
2010,03,31,13,21,9.60
2010,03,31,13,22,8.10
2010,03,31,13,23,8.10
2010,03,31,13,24,11.30
2010,03,31,13,25,8.10
2010,03,31,13,26,9.60
2010,03,31,13,27,11.30
2010,03,31,13,28,8.10
2010,03,31,13,29,11.30
2010,03,31,13,30,11.30
2010,03,31,13,31,14.50
2010,03,31,13,32,8.10
2010,03,31,13,33,4.80
2010,03,31,13,34,4.80
2010,03,31,13,35,6.40
2010,03,31,13,36,9.60
2010,03,31,13,37,9.60
2010,03,31,13,38,6.40
2010,03,31,13,39,8.10
2010,03,31,13,40,6.40
2010,03,31,13,41,8.10
2010,03,31,13,42,11.30
2010,03,31,13,43,4.80
2010,03,31,13,44,8.10
2010,03,31,13,45,12.90
2010,03,31,13,46,11.30
2010,03,31,13,47,6.40
2010,03,31,13,48,16.10
2010,03,31,13,49,9.60
2010,03,31,13,50,12.90
2010,03,31,13,51,11.30
2010,03,31,13,52,12.90
2010,03,31,13,53,8.10
2010,03,31,13,54,6.40
2010,03,31,13,55,8.10
2010,03,31,13,56,9.60
2010,03,31,13,57,6.40
2010,03,31,13,58,4.80
2010,03,31,13,59,14.50
2010,03,31,14,00,14.50
2010,03,31,14,01,4.80
2010,03,31,14,02,1.60
2010,03,31,14,03,6.40
2010,03,31,14,04,4.80
2010,03,31,14,05,4.80
2010,03,31,14,06,6.40
2010,03,31,14,07,4.80
2010,03,31,14,08,6.40
2010,03,31,14,09,8.10
2010,03,31,14,10,6.40
2010,03,31,14,11,8.10
2010,03,31,14,12,4.80
2010,03,31,14,13,3.20
2010,03,31,14,14,1.60
2010,03,31,14,15,6.40
2010,03,31,14,16,1.60
2010,03,31,14,17,4.80
2010,03,31,14,18,11.30
2010,03,31,14,19,6.40
2010,03,31,14,20,6.40
2010,03,31,14,21,9.60
2010,03,31,14,22,8.10
2010,03,31,14,23,8.10
2010,03,31,14,24,9.60
2010,03,31,14,25,6.40
2010,03,31,14,26,9.60
2010,03,31,14,27,6.40
2010,03,31,14,28,4.80
2010,03,31,14,29,8.10
2010,03,31,14,30,8.10
2010,03,31,14,31,4.80
2010,03,31,14,32,4.80
2010,03,31,14,33,6.40
2010,03,31,14,34,6.40
2010,03,31,14,35,8.10
2010,03,31,14,36,4.80
2010,03,31,14,37,11.30
2010,03,31,14,38,9.60
2010,03,31,14,39,9.60
2010,03,31,14,40,9.60
2010,03,31,14,41,11.30
2010,03,31,14,42,8.10
2010,03,31,14,43,8.10
2010,03,31,14,44,6.40
2010,03,31,14,45,6.40
2010,03,31,14,46,6.40
2010,03,31,14,47,6.40
2010,03,31,14,48,6.40
2010,03,31,14,49,8.10
2010,03,31,14,50,6.40
2010,03,31,14,51,6.40
2010,03,31,14,52,8.10
2010,03,31,14,53,11.30
2010,03,31,14,54,8.10
2010,03,31,14,55,8.10
2010,03,31,14,56,6.40
2010,03,31,14,57,4.80
2010,03,31,14,58,6.40
2010,03,31,14,59,6.40
2010,03,31,15,00,6.40
2010,03,31,15,01,3.20
2010,03,31,15,02,3.20
2010,03,31,15,03,1.60
2010,03,31,15,04,1.60
2010,03,31,15,05,1.60
2010,03,31,15,06,3.20
2010,03,31,15,07,4.80
2010,03,31,15,08,3.20
2010,03,31,15,09,3.20
2010,03,31,15,10,6.40
2010,03,31,15,11,8.10
2010,03,31,15,12,6.40
2010,03,31,15,13,11.30
2010,03,31,15,14,6.40
2010,03,31,15,15,3.20
2010,03,31,15,16,3.20
2010,03,31,15,17,8.10
2010,03,31,15,18,6.40
2010,03,31,15,19,6.40
2010,03,31,15,20,1.60
2010,03,31,15,21,4.80
2010,03,31,15,22,3.20
2010,03,31,15,23,4.80
2010,03,31,15,24,1.60
2010,03,31,15,25,3.20
2010,03,31,15,26,1.60
2010,03,31,15,27,1.60
2010,03,31,15,28,1.60
2010,03,31,15,29,3.20
2010,03,31,15,30,1.60
2010,03,31,15,31,3.20
2010,03,31,15,32,4.80
2010,03,31,15,33,11.30
2010,03,31,15,34,16.10
2010,03,31,15,35,12.90
2010,03,31,15,36,12.90
2010,03,31,15,37,11.30
2010,03,31,15,38,9.60
2010,03,31,15,39,6.40
2010,03,31,15,40,8.10
2010,03,31,15,41,11.30
2010,03,31,15,42,9.60
2010,03,31,15,43,9.60
2010,03,31,15,44,9.60
2010,03,31,15,45,8.10
2010,03,31,15,46,6.40
2010,03,31,15,47,11.30
2010,03,31,15,48,9.60
2010,03,31,15,49,9.60
2010,03,31,15,50,8.10
2010,03,31,15,51,4.80
2010,03,31,15,52,8.10
2010,03,31,15,53,1.60
2010,03,31,15,54,3.20
2010,03,31,15,55,9.60
2010,03,31,15,56,9.60
2010,03,31,15,57,9.60
2010,03,31,15,58,9.60
2010,03,31,15,59,6.40
2010,03,31,16,00,6.40
2010,03,31,16,01,8.10
2010,03,31,16,02,4.80
2010,03,31,16,03,6.40
2010,03,31,16,04,6.40
2010,03,31,16,05,9.60
2010,03,31,16,06,8.10
2010,03,31,16,07,11.30
2010,03,31,16,08,16.10
2010,03,31,16,09,16.10
2010,03,31,16,10,14.50
2010,03,31,16,11,8.10
2010,03,31,16,12,14.50
2010,03,31,16,13,16.10
2010,03,31,16,14,8.10
2010,03,31,16,15,9.60
2010,03,31,16,16,11.30
2010,03,31,16,17,11.30
2010,03,31,16,18,11.30
2010,03,31,16,19,16.10
2010,03,31,16,20,11.30
2010,03,31,16,21,11.30
2010,03,31,16,22,8.10
2010,03,31,16,23,4.80
2010,03,31,16,24,11.30
2010,03,31,16,25,14.50
2010,03,31,16,26,16.10
2010,03,31,16,27,14.50
2010,03,31,16,28,16.10
2010,03,31,16,29,16.10
2010,03,31,16,30,16.10
2010,03,31,16,31,12.90
2010,03,31,16,32,6.40
2010,03,31,16,33,14.50
2010,03,31,16,34,9.60
2010,03,31,16,35,9.60
2010,03,31,16,36,3.20
2010,03,31,16,37,6.40
2010,03,31,16,38,8.10
2010,03,31,16,39,6.40
2010,03,31,16,40,8.10
2010,03,31,16,41,11.30
2010,03,31,16,42,8.10
2010,03,31,16,43,8.10
2010,03,31,16,44,8.10
2010,03,31,16,45,6.40
2010,03,31,16,46,9.60
2010,03,31,16,47,14.50
2010,03,31,16,48,16.10
2010,03,31,16,49,17.70
2010,03,31,16,50,14.50
2010,03,31,16,51,8.10
2010,03,31,16,52,8.10
2010,03,31,16,53,12.90
2010,03,31,16,54,12.90
2010,03,31,16,55,8.10
2010,03,31,16,56,6.40
2010,03,31,16,57,8.10
2010,03,31,16,58,9.60
2010,03,31,16,59,11.30
2010,03,31,17,00,11.30
2010,03,31,17,01,9.60
2010,03,31,17,02,9.60
2010,03,31,17,03,11.30
2010,03,31,17,04,11.30
2010,03,31,17,05,6.40
2010,03,31,17,06,11.30
2010,03,31,17,07,16.10
2010,03,31,17,08,16.10
2010,03,31,17,09,11.30
2010,03,31,17,10,8.10
2010,03,31,17,11,11.30
2010,03,31,17,12,9.60
2010,03,31,17,13,14.50
2010,03,31,17,14,17.70
2010,03,31,17,15,11.30
2010,03,31,17,16,11.30
2010,03,31,17,17,14.50
2010,03,31,17,18,16.10
2010,03,31,17,19,14.50
2010,03,31,17,20,11.30
2010,03,31,17,21,14.50
2010,03,31,17,22,14.50
2010,03,31,17,23,17.70
2010,03,31,17,24,17.70
2010,03,31,17,25,11.30
2010,03,31,17,26,14.50
2010,03,31,17,27,14.50
2010,03,31,17,28,12.90
2010,03,31,17,29,17.70
2010,03,31,17,30,17.70
2010,03,31,17,31,17.70
2010,03,31,17,32,16.10
2010,03,31,17,33,14.50
2010,03,31,17,34,14.50
2010,03,31,17,35,11.30
2010,03,31,17,36,12.90
2010,03,31,17,37,14.50
2010,03,31,17,38,8.10
2010,03,31,17,39,9.60
2010,03,31,17,40,11.30
2010,03,31,17,41,11.30
2010,03,31,17,42,11.30
2010,03,31,17,43,14.50
2010,03,31,17,44,12.90
2010,03,31,17,45,14.50
2010,03,31,17,46,12.90
2010,03,31,17,47,11.30
2010,03,31,17,48,16.10
2010,03,31,17,49,8.10
2010,03,31,17,50,9.60
2010,03,31,17,51,14.50
2010,03,31,17,52,14.50
2010,03,31,17,53,11.30
2010,03,31,17,54,11.30
2010,03,31,17,55,12.90
2010,03,31,17,56,16.10